一网星座-0526星 (ONEWEB-0526 )

导读

ONEWEB-0526是一颗由英国(GB)发射的卫星,于2022年10月22日08:00发射入轨,隶属于OneWeb低轨宽带卫星星座项目,该星座旨在为全球提供高速互联网接入服务,尤其覆盖偏远地区与海洋空域,卫星运行在近地轨道,承担星座组网扩容、增强全球通信覆盖能力的任务。

基本信息
目录编号:
54144
目录名称:
ONEWEB-0526
国际标识:
2022-138AH
轨道中心:
EARTH
卫星名称:
一网星座-0526星
卫星全名:
一网星座-0526星 (ONEWEB-0526 )
卫星状态:
在轨 (已飞行1331 天)
发射日期:
2022-10-22 UTC
国别 :
英国 (GB)
星等 :
--
轨道信息
数据来源 国际轨道数据
星历时间: 2026-06-14T06:25:39+0800
13小时前
查看轨道信息
半长轴: 7563.905km
偏心率: 0.0001758
轨道倾角: 87.918°
近地点辐角 102.070°
升交点赤经 305.613°
平近点角 258.063°
近地点: 1184.438km
远地点: 1187.098km
周期: 109.114分钟
每日圈数: 13.197259
详细信息
平衡模式:
三轴稳定
覆盖范围:
全球
运营商:
一网卫星公司
运营商所在国:
英国
制造商(研发单位):
一网卫星公司
制造商所在国:
英国
使用方式:
暂无
卫星简介
OneWeb卫星网络由648颗重约125公斤的微型卫星组成,运行在1200公里的轨道上。 每颗卫星都能够提供至少每秒8千兆位的吞吐量,以使用其高吞吐量的Ku频段有效载荷为家庭和移动平台提供互联网接入。该卫星仍在工作。
2D轨道图
3D轨道图
轨道高度分析图
轨道倾角分析图
轨道综合分析图
查看轨道综合分析图